EW3714 Weather Reports


Display with metric or nautical units.
time (UTC)temp
F
wind
direction
speed
MPH
gust
MPH
rain 1hr
in
rain 24hr
in
rain mn
in
humidity
%
barometer
mb
20260831085953 80 60 0.0 2.0 0.00 0.00 0.00 86 1016.5
20260831085449 80 75 0.0 2.0 0.00 0.00 0.00 85 1016.5
20260831084948 80 89 0.0 0.0 0.00 0.00 0.00 85 1016.4
20260831084444 80 358 1.0 2.0 0.00 0.00 0.00 85 1016.3
20260831083941 80 99 1.0 2.0 0.00 0.00 0.00 85 1016.5
20260831083436 80 73 1.0 2.0 0.00 0.00 0.00 85 1016.5
20260831082935 80 72 1.0 3.0 0.00 0.00 0.00 86 1016.5
20260831082435 80 353 2.0 3.0 0.00 0.00 0.00 85 1016.6
20260831081930 80 269 0.0 2.0 0.00 0.00 0.00 84 1016.7
20260831081426 80 14 2.0 3.0 0.00 0.00 0.00 84 1016.7
20260831080922 80 348 0.0 2.0 0.00 0.00 0.00 84 1016.8
20260831080417 80 220 0.0 3.0 0.00 0.00 0.00 84 1016.7
20260831075912 81 331 2.0 2.0 0.00 0.00 0.00 83 1016.6
20260831075408 81 359 2.0 3.0 0.00 0.00 0.00 83 1016.7
20260831074903 81 323 1.0 3.0 0.00 0.00 0.00 82 1016.7
20260831074402 81 64 0.0 3.0 0.00 0.00 0.00 80 1016.8
20260831073857 81 337 0.0 2.0 0.00 0.00 0.00 79 1016.5
20260831073356 81 35 1.0 2.0 0.00 0.00 0.00 79 1016.7
20260831072851 81 32 1.0 3.0 0.00 0.00 0.00 78 1016.8
20260831072347 81 0 0.0 1.0 0.00 0.00 0.00 77 1016.5
20260831071843 81 147 0.0 2.0 0.00 0.00 0.00 77 1016.7
20260831071342 82 69 0.0 2.0 0.00 0.00 0.00 78 1016.6
20260831070837 82 352 0.0 2.0 0.00 0.00 0.00 77 1016.7
20260831070336 82 22 1.0 2.0 0.00 0.00 0.00 76 1016.7
20260831065835 82 359 0.0 3.0 0.00 0.00 0.00 76 1016.7
20260831065333 82 32 1.0 2.0 0.00 0.00 0.00 76 1016.8
20260831064828 82 304 0.0 3.0 0.00 0.00 0.00 75 1016.9
20260831064324 82 333 0.0 3.0 0.00 0.00 0.00 75 1016.8
20260831063820 82 9 2.0 2.0 0.00 0.00 0.00 75 1016.8
20260831063315 83 104 0.0 2.0 0.00 0.00 0.00 76 1016.8
20260831062814 83 55 0.0 2.0 0.00 0.00 0.00 75 1016.9
20260831062310 83 242 1.0 3.0 0.00 0.00 0.00 73 1016.7
20260831061809 83 61 0.0 1.0 0.00 0.00 0.00 73 1016.8
20260831061308 83 49 0.0 0.0 0.00 0.00 0.00 72 1016.7
20260831060805 83 5 0.0 1.0 0.00 0.00 0.00 72 1016.7
20260831060304 83 15 0.0 1.0 0.00 0.00 0.00 72 1016.7
20260831055804 83 29 0.0 0.0 0.00 0.00 0.00 72 1016.7
20260831055259 83 11 0.0 0.0 0.00 0.00 0.00 71 1016.5
20260831054754 84 37 0.0 0.0 0.00 0.00 0.00 71 1016.5
20260831054249 84 50 0.0 0.0 0.00 0.00 0.00 70 1016.4
20260831053748 84 22 0.0 0.0 0.00 0.00 0.00 70 1016.4
20260831053247 84 359 2.0 2.0 0.00 0.00 0.00 69 1016.4
20260831052742 84 32 0.0 1.0 0.00 0.00 0.00 70 1016.5
20260831052241 85 113 0.0 0.0 0.00 0.00 0.00 68 1016.4
20260831051739 85 57 0.0 2.0 0.00 0.00 0.00 69 1016.3
20260831051238 85 59 1.0 2.0 0.00 0.00 0.00 70 1016.1
20260831050733 85 55 0.0 2.0 0.00 0.00 0.00 68 1016.3
20260831050231 85 39 1.0 2.0 0.00 0.00 0.00 67 1016.2
20260831045726 86 6 0.0 0.0 0.00 0.00 0.00 66 1016.2
20260831045226 86 32 0.0 3.0 0.00 0.00 0.00 66 1016.2
20260831044721 86 284 0.0 2.0 0.00 0.00 0.00 65 1015.9
20260831044216 86 230 0.0 1.0 0.00 0.00 0.00 65 1015.8
20260831043712 86 174 0.0 2.0 0.00 0.00 0.00 64 1016.0
20260831043207 86 195 0.0 2.0 0.00 0.00 0.00 64 1016.1
20260831042706 86 193 2.0 4.0 0.00 0.00 0.00 64 1016.0
20260831042201 86 50 0.0 1.0 0.00 0.00 0.00 63 1015.9
20260831041656 87 22 0.0 2.0 0.00 0.00 0.00 62 1016.0
20260831041156 87 354 1.0 1.0 0.00 0.00 0.00 62 1016.3
20260831040651 87 231 0.0 4.0 0.00 0.00 0.00 61 1016.3
20260831040150 87 218 0.0 1.0 0.00 0.00 0.00 61 1016.2
20260831035650 87 352 0.0 2.0 0.00 0.00 0.00 61 1016.1
20260831035149 87 23 1.0 2.0 0.00 0.00 0.00 60 1016.1
20260831034648 87 0 0.0 2.0 0.00 0.00 0.00 60 1016.0
20260831034144 88 326 0.0 1.0 0.00 0.00 0.00 60 1016.0
20260831033639 88 172 0.0 3.0 0.00 0.00 0.00 59 1015.8
20260831033134 88 188 0.0 2.0 0.00 0.00 0.00 59 1015.8
20260831032634 88 113 0.0 2.0 0.00 0.00 0.00 60 1015.7
20260831032130 88 205 0.0 1.0 0.00 0.00 0.00 59 1015.8
20260831031630 88 354 0.0 1.0 0.00 0.00 0.00 60 1015.5
20260831031129 88 322 0.0 0.0 0.00 0.00 0.00 59 1015.6
20260831030628 88 333 0.0 2.0 0.00 0.00 0.00 59 1015.4
20260831030127 88 25 0.0 1.0 0.00 0.00 0.00 58 1015.4
20260831025626 88 12 2.0 2.0 0.00 0.00 0.00 58 1015.2
20260831025121 89 309 0.0 1.0 0.00 0.00 0.00 58 1015.3
20260831024617 89 29 0.0 2.0 0.00 0.00 0.00 59 1015.2
20260831024116 89 0 1.0 1.0 0.00 0.00 0.00 58 1015.2
20260831023609 89 343 0.0 1.0 0.00 0.00 0.00 58 1015.0
20260831023108 89 1 0.0 2.0 0.00 0.00 0.00 57 1014.9
20260831022602 89 352 0.0 2.0 0.00 0.00 0.00 58 1014.9
20260831022058 90 311 0.0 2.0 0.00 0.00 0.00 57 1014.4
20260831021557 90 325 0.0 2.0 0.00 0.00 0.00 57 1014.6
20260831021053 90 325 1.0 2.0 0.00 0.00 0.00 56 1014.5
20260831020548 90 269 0.0 2.0 0.00 0.00 0.00 56 1014.4
20260831020043 90 32 0.0 2.0 0.00 0.00 0.00 55 1014.4
20260831015538 91 320 0.0 1.0 0.00 0.00 0.00 54 1014.2
20260831015033 91 6 0.0 2.0 0.00 0.00 0.00 52 1014.3
20260831014528 91 229 2.0 3.0 0.00 0.00 0.00 49 1014.1
20260831014023 90 344 0.0 0.0 0.00 0.00 0.00 49 1014.0
20260831013519 90 142 0.0 0.0 0.00 0.00 0.00 48 1013.8
20260831013014 91 13 0.0 0.0 0.00 0.00 0.00 48 1013.7
20260831012508 91 32 0.0 0.0 0.00 0.00 0.00 48 1013.5
20260831012008 91 0 0.0 0.0 0.00 0.00 0.00 47 1013.6
20260831011502 91 32 0.0 0.0 0.00 0.00 0.00 47 1013.6
20260831010959 92 25 0.0 0.0 0.00 0.00 0.00 47 1013.6
20260831010458 92 326 0.0 0.0 0.00 0.00 0.00 47 1013.7
20260831005954 92 333 0.0 0.0 0.00 0.00 0.00 46 1013.7
20260831005450 93 24 0.0 0.0 0.00 0.00 0.00 47 1013.6
20260831004949 93 235 0.0 1.0 0.00 0.00 0.00 47 1013.5
20260831004446 93 351 0.0 1.0 0.00 0.00 0.00 45 1013.4
20260831003941 93 0 0.0 1.0 0.00 0.00 0.00 45 1013.5
20260831003437 93 322 0.0 0.0 0.00 0.00 0.00 45 1013.6
20260831002937 93 176 0.0 0.0 0.00 0.00 0.00 45 1013.5
20260831002436 94 15 0.0 2.0 0.00 0.00 0.00 44 1013.7
20260831001932 94 48 0.0 1.0 0.00 0.00 0.00 44 1013.4
20260831001426 94 302 0.0 0.0 0.00 0.00 0.00 43 1013.5
20260831000924 95 38 0.0 0.0 0.00 0.00 0.00 44 1013.5
20260831000419 95 22 0.0 2.0 0.00 0.00 0.00 43 1013.3
20260830235917 96 44 0.0 2.0 0.00 0.00 0.00 44 1013.4
20260830235413 96 321 0.0 1.0 0.00 0.00 0.00 42 1013.4
20260830234908 96 322 0.0 1.0 0.00 0.00 0.00 43 1013.6
20260830234403 97 321 0.0 1.0 0.00 0.00 0.00 42 1013.4
20260830233859 97 317 0.0 2.0 0.00 0.00 0.00 42 1013.6
20260830233400 97 37 0.0 3.0 0.00 0.00 0.00 41 1013.5
20260830232855 98 334 2.0 2.0 0.00 0.00 0.00 41 1013.3
20260830232351 98 198 0.0 2.0 0.00 0.00 0.00 40 1013.6
20260830231847 98 299 0.0 2.0 0.00 0.00 0.00 41 1013.5
20260830231342 98 348 0.0 1.0 0.00 0.00 0.00 40 1013.5
20260830230842 98 33 0.0 2.0 0.00 0.00 0.00 41 1013.5
20260830230337 98 326 0.0 2.0 0.00 0.00 0.00 40 1013.4
20260830225837 98 230 0.0 2.0 0.00 0.00 0.00 38 1013.3
20260830225332 98 299 0.0 3.0 0.00 0.00 0.00 39 1013.5
20260830224827 98 352 0.0 0.0 0.00 0.00 0.00 38 1013.5
20260830224321 98 343 0.0 1.0 0.00 0.00 0.00 39 1013.6
20260830223818 98 328 1.0 2.0 0.00 0.00 0.00 40 1013.7
20260830223314 98 27 1.0 2.0 0.00 0.00 0.00 42 1013.7
20260830222813 98 35 0.0 2.0 0.00 0.00 0.00 40 1013.6
20260830222308 98 0 0.0 1.0 0.00 0.00 0.00 39 1013.6
20260830221804 98 218 1.0 3.0 0.00 0.00 0.00 39 1013.6
20260830221301 98 9 0.0 4.0 0.00 0.00 0.00 40 1013.7
20260830220801 98 287 0.0 2.0 0.00 0.00 0.00 40 1013.8
20260830220300 98 186 0.0 2.0 0.00 0.00 0.00 40 1013.8
20260830215758 98 71 0.0 3.0 0.00 0.00 0.00 41 1013.9
20260830215254 98 347 0.0 2.0 0.00 0.00 0.00 40 1013.9
20260830214749 98 17 3.0 3.0 0.00 0.00 0.00 41 1014.0
20260830214249 98 332 0.0 3.0 0.00 0.00 0.00 41 1014.1
20260830213748 98 352 1.0 3.0 0.00 0.00 0.00 41 1014.2
20260830213243 98 332 0.0 1.0 0.00 0.00 0.00 42 1014.2
20260830212739 98 328 0.0 2.0 0.00 0.00 0.00 41 1014.2
20260830212235 98 347 2.0 3.0 0.00 0.00 0.00 41 1014.4
20260830211734 98 20 2.0 2.0 0.00 0.00 0.00 41 1014.4
20260830211233 98 27 0.0 2.0 0.00 0.00 0.00 42 1014.5
20260830210729 99 281 1.0 3.0 0.00 0.00 0.00 41 1014.9
20260830210228 102 357 2.0 2.0 0.00 0.00 0.00 39 1014.8
20260830205726 102 310 2.0 2.0 0.00 0.00 0.00 38 1014.8
20260830205221 100 319 1.0 4.0 0.00 0.00 0.00 40 1014.8
20260830204716 102 243 1.0 3.0 0.00 0.00 0.00 37 1014.8
20260830204214 102 343 0.0 2.0 0.00 0.00 0.00 38 1015.0
20260830203711 100 267 0.0 2.0 0.00 0.00 0.00 40 1015.2
20260830203206 100 353 1.0 2.0 0.00 0.00 0.00 40 1015.4
20260830202706 102 336 2.0 3.0 0.00 0.00 0.00 39 1015.4
20260830202202 103 284 0.0 2.0 0.00 0.00 0.00 38 1015.4
20260830201700 103 251 1.0 2.0 0.00 0.00 0.00 39 1015.4
20260830201156 100 325 1.0 2.0 0.00 0.00 0.00 41 1015.3
20260830200651 98 11 0.0 2.0 0.00 0.00 0.00 43 1015.6
20260830200150 101 299 1.0 3.0 0.00 0.00 0.00 41 1015.5
20260830195646 100 50 0.0 3.0 0.00 0.00 0.00 42 1015.6
20260830195144 100 265 0.0 2.0 0.00 0.00 0.00 42 1015.7
20260830194643 101 234 1.0 3.0 0.00 0.00 0.00 41 1015.8
20260830194143 100 1 2.0 4.0 0.00 0.00 0.00 42 1016.0
20260830193639 101 36 2.0 3.0 0.00 0.00 0.00 42 1016.0
20260830193138 101 333 1.0 4.0 0.00 0.00 0.00 42 1016.2
20260830192634 101 327 0.0 2.0 0.00 0.00 0.00 42 1016.3
20260830192129 100 53 0.0 3.0 0.00 0.00 0.00 43 1016.2
20260830191624 102 277 0.0 2.0 0.00 0.00 0.00 41 1016.5
20260830191119 99 303 1.0 3.0 0.00 0.00 0.00 43 1016.3
20260830190615 98 31 0.0 1.0 0.00 0.00 0.00 45 1016.5
20260830190110 100 343 0.0 2.0 0.00 0.00 0.00 43 1016.9
20260830185608 100 221 1.0 2.0 0.00 0.00 0.00 44 1016.7
20260830185105 101 356 3.0 3.0 0.00 0.00 0.00 44 1017.0
20260830184603 101 234 0.0 2.0 0.00 0.00 0.00 42 1016.8
20260830184058 100 308 1.0 3.0 0.00 0.00 0.00 44 1016.9
20260830183552 99 321 1.0 3.0 0.00 0.00 0.00 44 1016.9
20260830183049 99 322 0.0 2.0 0.00 0.00 0.00 45 1017.1
20260830182544 98 315 0.0 2.0 0.00 0.00 0.00 45 1017.2
20260830182040 96 298 0.0 3.0 0.00 0.00 0.00 47 1017.2
20260830181536 97 169 0.0 3.0 0.00 0.00 0.00 47 1017.3
20260830181035 97 197 0.0 2.0 0.00 0.00 0.00 46 1017.3
20260830180535 96 348 2.0 2.0 0.00 0.00 0.00 47 1017.5
20260830180034 94 217 1.0 2.0 0.00 0.00 0.00 51 1017.6
20260830175533 96 26 2.0 2.0 0.00 0.00 0.00 48 1017.8
20260830175028 97 298 0.0 2.0 0.00 0.00 0.00 48 1017.8
20260830174524 96 30 1.0 2.0 0.00 0.00 0.00 50 1018.0
20260830174019 93 164 0.0 1.0 0.00 0.00 0.00 53 1018.0
20260830173515 94 147 1.0 2.0 0.00 0.00 0.00 53 1018.2
20260830173009 91 5 1.0 1.0 0.00 0.00 0.00 56 1018.1
20260830172506 91 39 1.0 2.0 0.00 0.00 0.00 57 1018.2
20260830172002 93 13 1.0 2.0 0.00 0.00 0.00 56 1018.1
20260830171457 93 65 1.0 2.0 0.00 0.00 0.00 55 1018.2
20260830170957 93 312 0.0 2.0 0.00 0.00 0.00 54 1018.5
20260830170451 92 68 0.0 2.0 0.00 0.00 0.00 56 1018.3
20260830165949 91 37 0.0 2.0 0.00 0.00 0.00 55 1018.6
20260830165446 90 184 0.0 2.0 0.00 0.00 0.00 60 1018.3
20260830164942 89 243 1.0 3.0 0.00 0.00 0.00 60 1018.5
20260830164437 88 33 2.0 2.0 0.00 0.00 0.00 62 1018.7
20260830163934 88 223 2.0 2.0 0.00 0.00 0.00 61 1018.6
20260830163430 88 303 1.0 3.0 0.00 0.00 0.00 63 1018.7
20260830162929 87 22 0.0 2.0 0.00 0.00 0.00 63 1018.6
20260830162425 88 21 0.0 3.0 0.00 0.00 0.00 64 1018.6
20260830161925 87 242 1.0 3.0 0.00 0.00 0.00 65 1018.7
20260830161425 86 34 0.0 1.0 0.00 0.00 0.00 68 1018.8
20260830160920 86 44 0.0 2.0 0.00 0.00 0.00 67 1018.7
20260830160416 86 21 1.0 2.0 0.00 0.00 0.00 66 1018.5
20260830155911 86 54 1.0 2.0 0.00 0.00 0.00 68 1018.6
20260830155408 86 349 2.0 2.0 0.00 0.00 0.00 66 1018.6
20260830154902 86 139 1.0 1.0 0.00 0.00 0.00 68 1018.4
20260830154358 85 88 1.0 3.0 0.00 0.00 0.00 69 1018.5
20260830153855 85 41 2.0 2.0 0.00 0.00 0.00 71 1018.3
20260830153350 84 122 1.0 2.0 0.00 0.00 0.00 73 1018.5
20260830152848 84 155 2.0 2.0 0.00 0.00 0.00 72 1018.5
20260830152343 84 356 1.0 2.0 0.00 0.00 0.00 73 1018.2
20260830151838 84 80 1.0 2.0 0.00 0.00 0.00 73 1018.4
20260830151337 84 41 2.0 3.0 0.00 0.00 0.00 74 1018.3
20260830150833 84 10 1.0 4.0 0.00 0.00 0.00 74 1018.4
20260830150332 84 64 1.0 2.0 0.00 0.00 0.00 75 1018.4
20260830145826 83 72 0.0 2.0 0.00 0.00 0.00 75 1018.3
20260830145321 83 50 0.0 3.0 0.00 0.00 0.00 77 1018.3
20260830144817 82 30 0.0 2.0 0.00 0.00 0.00 78 1018.2
20260830144313 82 14 1.0 2.0 0.00 0.00 0.00 80 1018.4
20260830143808 81 91 2.0 3.0 0.00 0.00 0.00 80 1018.3
20260830143308 81 225 1.0 2.0 0.00 0.00 0.00 80 1018.3
20260830142802 81 89 0.0 4.0 0.00 0.00 0.00 81 1018.3
20260830142257 81 62 0.0 3.0 0.00 0.00 0.00 82 1018.4
20260830141753 80 58 0.0 2.0 0.00 0.00 0.00 82 1018.3
20260830141248 80 36 2.0 2.0 0.00 0.00 0.00 83 1018.4
20260830140748 80 128 0.0 2.0 0.00 0.00 0.00 83 1018.4
20260830140243 80 89 0.0 3.0 0.00 0.00 0.00 83 1018.2
20260830135738 80 19 0.0 2.0 0.00 0.00 0.00 83 1018.2
20260830135233 80 55 1.0 1.0 0.00 0.00 0.00 84 1018.3
20260830134729 79 182 0.0 1.0 0.00 0.00 0.00 84 1018.1
20260830134224 79 52 0.0 2.0 0.00 0.00 0.00 85 1018.2
20260830133719 78 68 0.0 2.0 0.00 0.00 0.00 85 1018.1
20260830133215 78 56 2.0 2.0 0.00 0.00 0.00 87 1018.1
20260830132711 78 250 0.0 2.0 0.00 0.00 0.00 86 1018.1
20260830132206 78 81 0.0 3.0 0.00 0.00 0.00 87 1018.0
20260830131700 78 84 1.0 2.0 0.00 0.00 0.00 87 1018.0
20260830131159 78 67 1.0 2.0 0.00 0.00 0.00 87 1018.0
20260830130654 78 69 1.0 2.0 0.00 0.00 0.00 87 1017.6
20260830130154 77 70 1.0 2.0 0.00 0.00 0.00 87 1017.9
20260830125654 77 99 0.0 3.0 0.00 0.00 0.00 88 1017.9
20260830125154 77 79 1.0 2.0 0.00 0.00 0.00 88 1017.8
20260830124652 76 38 0.0 2.0 0.00 0.00 0.00 89 1017.7
20260830124148 76 50 1.0 2.0 0.00 0.00 0.00 88 1017.9
20260830123645 76 0 0.0 2.0 0.00 0.00 0.00 88 1017.7
20260830123140 76 19 1.0 2.0 0.00 0.00 0.00 89 1017.7
20260830122637 76 43 0.0 2.0 0.00 0.00 0.00 88 1017.6
20260830122133 76 8 0.0 2.0 0.00 0.00 0.00 88 1017.4
20260830121629 76 324 0.0 2.0 0.00 0.00 0.00 88 1017.5
20260830121128 76 25 0.0 2.0 0.00 0.00 0.00 88 1017.6
20260830120623 76 29 0.0 2.0 0.00 0.00 0.00 88 1017.4
20260830120120 76 310 0.0 1.0 0.00 0.00 0.00 88 1017.2
20260830115615 76 8 1.0 1.0 0.00 0.00 0.00 88 1017.2
20260830115110 76 63 0.0 1.0 0.00 0.00 0.00 88 1017.4
20260830114608 76 38 0.0 2.0 0.00 0.00 0.00 87 1017.4
20260830114106 76 301 0.0 3.0 0.00 0.00 0.00 88 1017.3
20260830113602 76 336 0.0 2.0 0.00 0.00 0.00 87 1017.3
20260830113057 76 73 0.0 2.0 0.00 0.00 0.00 87 1017.4
20260830112553 76 50 1.0 1.0 0.00 0.00 0.00 87 1017.1
20260830112049 76 38 0.0 1.0 0.00 0.00 0.00 86 1017.1
20260830111545 76 62 1.0 1.0 0.00 0.00 0.00 86 1017.0
20260830111041 76 53 0.0 1.0 0.00 0.00 0.00 86 1017.0
20260830110540 76 18 0.0 2.0 0.00 0.00 0.00 85 1017.0
20260830110036 77 358 1.0 2.0 0.00 0.00 0.00 85 1017.0
20260830105531 77 38 0.0 2.0 0.00 0.00 0.00 85 1017.0
20260830105027 77 70 1.0 2.0 0.00 0.00 0.00 86 1017.1
20260830104524 77 13 2.0 2.0 0.00 0.00 0.00 84 1016.9
20260830104020 77 55 0.0 1.0 0.00 0.00 0.00 84 1016.9
20260830103515 77 32 0.0 2.0 0.00 0.00 0.00 83 1016.9
20260830103014 77 42 0.0 2.0 0.00 0.00 0.00 83 1016.9
20260830102514 77 74 0.0 2.0 0.00 0.00 0.00 83 1016.8
20260830102009 77 334 0.0 2.0 0.00 0.00 0.00 83 1016.8
20260830101505 78 5 0.0 1.0 0.00 0.00 0.00 82 1016.8
20260830101004 78 88 0.0 1.0 0.00 0.00 0.00 81 1016.9
20260830100504 78 70 0.0 1.0 0.00 0.00 0.00 81 1016.7
20260830100003 78 38 0.0 2.0 0.00 0.00 0.00 82 1016.8
20260830095458 78 15 0.0 2.0 0.00 0.00 0.00 81 1016.7
20260830094954 78 141 1.0 2.0 0.00 0.00 0.00 80 1016.8
20260830094450 78 64 0.0 2.0 0.00 0.00 0.00 80 1016.8
20260830093945 78 283 0.0 2.0 0.00 0.00 0.00 79 1016.7
20260830093440 78 44 0.0 1.0 0.00 0.00 0.00 79 1016.7
20260830092936 79 63 0.0 1.0 0.00 0.00 0.00 79 1016.9
20260830092431 79 6 1.0 2.0 0.00 0.00 0.00 79 1016.8
20260830091929 79 40 1.0 1.0 0.00 0.00 0.00 78 1016.7
20260830091428 79 358 0.0 2.0 0.00 0.00 0.00 77 1016.7
20260830090927 79 69 1.0 2.0 0.00 0.00 0.00 77 1016.8
20260830090423 79 327 1.0 1.0 0.00 0.00 0.00 77 1016.8